DW7999 Weather Reports


time (UTC)temp
F
wind
direction
speed
knots
gust
knots
rain 1hr
in
rain 24hr
in
rain mn
in
humidity
%
barometer
mb
20260903043558 80 254 2.6 7.0 0.00 0.00 0.00 81 1014.1
20260903043552 80 252 0.0 0.0 0.00 0.00 0.00 82 1011.2
20260903043209 80 216 2.6 7.0 0.00 0.00 0.00 81 1014.0
20260903043051 80 252 0.0 0.0 0.00 0.00 0.00 82 1011.2
20260903042557 80 221 2.6 7.0 0.00 0.00 0.00 81 1014.0
20260903042549 80 252 0.0 0.0 0.00 0.00 0.00 82 1011.2
20260903042059 80 244 2.6 6.1 0.00 0.00 0.00 81 1014.1
20260903042048 80 252 0.0 0.0 0.00 0.00 0.00 81 1011.2
20260903041608 80 201 1.7 8.7 0.00 0.00 0.00 80 1014.1
20260903041548 80 252 0.0 0.0 0.00 0.00 0.00 81 1011.4
20260903041057 81 245 3.5 8.7 0.00 0.00 0.00 80 1014.2
20260903041046 81 252 0.0 0.0 0.00 0.00 0.00 81 1011.3
20260903040558 81 234 3.5 7.8 0.00 0.00 0.00 80 1014.0
20260903040546 81 211 0.0 0.0 0.00 0.00 0.00 80 1011.2
20260903040108 81 227 2.6 7.0 0.00 0.00 0.00 80 1013.9
20260903040058 81 211 0.0 0.0 0.00 0.00 0.00 80 1011.1
20260903035559 81 225 2.6 7.8 0.00 0.00 0.00 80 1013.8
20260903035544 81 211 0.0 0.0 0.00 0.00 0.00 80 1011.1
20260903035058 81 239 2.6 8.7 0.00 0.00 0.00 80 1013.9
20260903035044 81 211 0.0 0.0 0.00 0.00 0.00 80 1011.0
20260903034606 81 200 2.6 10.4 0.00 0.00 0.00 79 1013.7
20260903034545 81 211 0.0 0.0 0.00 0.00 0.00 80 1011.0
20260903034058 81 232 2.6 10.4 0.00 0.00 0.00 79 1013.7
20260903034044 81 211 0.0 0.0 0.00 0.00 0.00 79 1011.0
20260903033600 81 222 4.3 9.6 0.00 0.00 0.00 79 1013.6
20260903033543 81 240 0.0 0.0 0.00 0.00 0.00 79 1010.8
20260903033107 81 240 2.6 12.2 0.00 0.00 0.00 79 1013.6
20260903033045 81 220 0.0 0.0 0.00 0.00 0.00 79 1010.8
20260903032601 81 213 3.5 12.2 0.00 0.00 0.00 79 1013.5
20260903032543 81 220 0.0 0.0 0.00 0.00 0.00 79 1010.8
20260903032104 81 227 3.5 8.7 0.00 0.00 0.00 79 1013.3
20260903032042 81 220 0.0 0.0 0.00 0.00 0.00 79 1010.5
20260903031604 81 200 3.5 8.7 0.00 0.00 0.00 78 1013.3
20260903031543 81 178 0.0 0.0 0.00 0.00 0.00 79 1010.5
20260903031102 81 237 2.6 7.8 0.00 0.00 0.00 78 1013.2
20260903031042 81 178 0.0 0.0 0.00 0.00 0.00 79 1010.4
20260903030559 81 204 2.6 8.7 0.00 0.00 0.00 78 1013.1
20260903030543 81 179 0.0 0.0 0.00 0.00 0.00 79 1010.3
20260903030104 81 207 2.6 8.7 0.00 0.00 0.00 78 1013.1
20260903030042 81 179 0.0 0.0 0.00 0.00 0.00 79 1010.4
20260903025557 81 229 3.5 7.0 0.00 0.00 0.00 78 1013.3
20260903025521 81 179 0.0 0.0 0.00 0.00 0.00 79 1010.5
20260903025100 81 202 3.5 7.0 0.00 0.00 0.00 78 1013.5
20260903025019 81 179 0.0 0.0 0.00 0.00 0.00 79 1010.6
20260903024606 81 183 2.6 7.8 0.00 0.00 0.00 78 1013.5
20260903024519 81 182 0.0 0.0 0.00 0.00 0.00 78 1010.7
20260903024102 81 196 3.5 7.8 0.00 0.00 0.00 78 1013.7
20260903024019 82 182 0.0 0.0 0.00 0.00 0.00 78 1010.9
20260903023601 82 185 3.5 7.8 0.00 0.00 0.00 77 1013.8
20260903023519 82 182 0.0 0.0 0.00 0.00 0.00 78 1011.1
20260903023103 82 191 2.6 6.1 0.00 0.00 0.00 77 1013.9
20260903023018 82 182 0.0 0.0 0.00 0.00 0.00 78 1011.1
20260903022602 82 205 1.7 6.1 0.00 0.00 0.00 77 1014.0
20260903022519 82 182 0.0 0.0 0.00 0.00 0.00 78 1011.2
20260903022057 82 194 2.6 6.1 0.00 0.00 0.00 77 1014.0
20260903022018 82 182 0.0 0.0 0.00 0.00 0.00 78 1011.1
20260903021602 82 227 1.7 7.0 0.00 0.00 0.00 77 1014.0
20260903021520 82 182 0.0 0.0 0.00 0.00 0.00 77 1011.2
20260903021101 82 225 2.6 8.7 0.00 0.00 0.00 77 1014.1
20260903021019 82 182 0.0 0.0 0.00 0.00 0.00 77 1011.2
20260903020559 82 191 4.3 8.7 0.00 0.00 0.00 76 1014.1
20260903020518 82 182 0.0 0.0 0.00 0.00 0.00 77 1011.1
20260903020018 82 192 0.0 0.0 0.00 0.00 0.00 77 1011.2
20260903015600 82 210 3.5 7.0 0.00 0.00 0.00 76 1014.1
20260903015517 82 192 0.0 0.0 0.00 0.00 0.00 76 1011.2
20260903015100 82 199 3.5 7.0 0.00 0.00 0.00 75 1014.1
20260903015017 82 192 0.0 0.0 0.00 0.00 0.00 76 1011.2
20260903014604 82 214 3.5 7.0 0.00 0.00 0.00 75 1014.2
20260903014517 82 192 0.0 0.0 0.00 0.00 0.00 76 1011.3
20260903014100 82 211 2.6 6.1 0.00 0.00 0.00 75 1014.2
20260903014017 82 225 0.0 0.0 0.00 0.00 0.00 75 1011.2
20260903013600 82 203 2.6 5.2 0.00 0.00 0.00 75 1014.2
20260903013517 82 225 0.0 0.0 0.00 0.00 0.00 76 1011.2
20260903013108 83 200 2.6 7.0 0.00 0.00 0.00 75 1014.3
20260903013018 83 225 0.0 0.0 0.00 0.00 0.00 75 1011.2
20260903012559 83 201 2.6 7.0 0.00 0.00 0.00 74 1014.2
20260903012516 83 225 0.0 0.0 0.00 0.00 0.00 75 1011.3
20260903012101 83 217 2.6 7.0 0.00 0.00 0.00 74 1014.3
20260903012020 83 225 0.0 0.0 0.00 0.00 0.00 74 1011.3
20260903011602 83 201 2.6 5.2 0.00 0.00 0.00 73 1014.3
20260903011517 83 225 0.0 0.0 0.00 0.00 0.00 74 1011.3
20260903011101 83 194 2.6 5.2 0.00 0.00 0.00 73 1014.2
20260903011016 83 225 0.0 0.0 0.00 0.00 0.00 74 1011.2
20260903010558 83 200 2.6 5.2 0.00 0.00 0.00 73 1014.2
20260903010515 83 225 0.0 0.0 0.00 0.00 0.00 73 1011.1
20260903010106 83 196 1.7 4.3 0.00 0.00 0.00 73 1014.2
20260903010036 83 225 0.0 0.0 0.00 0.00 0.00 73 1011.0
20260903005600 84 224 1.7 4.3 0.00 0.00 0.00 72 1014.1
20260903005515 84 225 0.0 0.0 0.00 0.00 0.00 73 1011.0
20260903005100 84 207 1.7 4.3 0.00 0.00 0.00 72 1014.1
20260903005014 84 225 0.0 0.0 0.00 0.00 0.00 72 1011.0
20260903004606 84 207 1.7 4.3 0.00 0.00 0.00 71 1014.1
20260903004514 84 225 0.0 0.0 0.00 0.00 0.00 72 1011.0
20260903004102 84 206 1.7 6.1 0.00 0.00 0.00 70 1014.1
20260903004014 84 225 0.0 0.0 0.00 0.00 0.00 71 1010.9
20260903003559 85 209 2.6 6.1 0.00 0.00 0.00 70 1014.1
20260903003515 85 225 0.0 0.0 0.00 0.00 0.00 70 1011.0
20260903003104 85 229 2.6 6.1 0.00 0.00 0.00 69 1014.1
20260903003014 85 225 0.0 0.0 0.00 0.00 0.00 70 1011.0
20260903002559 85 212 2.6 5.2 0.00 0.00 0.00 69 1014.1
20260903002514 85 225 0.0 0.0 0.00 0.00 0.00 70 1011.0
20260903002118 85 211 2.6 6.1 0.00 0.00 0.00 68 1014.2
20260903002014 85 225 0.0 0.0 0.00 0.00 0.00 69 1011.1
20260903001602 85 217 2.6 7.0 0.00 0.00 0.00 68 1014.1
20260903001520 85 225 0.0 0.0 0.00 0.00 0.00 69 1011.0
20260903001100 85 213 2.6 7.8 0.00 0.00 0.00 67 1014.1
20260903001017 85 225 0.0 0.0 0.00 0.00 0.00 68 1011.0
20260903000600 86 218 3.5 9.6 0.00 0.00 0.00 67 1014.1
20260903000518 85 225 0.0 0.0 0.00 0.00 0.00 68 1011.0
20260903000110 86 213 2.6 9.6 0.00 0.00 0.00 67 1014.2
20260903000015 86 225 0.0 0.0 0.00 0.00 0.00 68 1011.0
20260902235600 86 228 1.7 7.0 0.00 0.00 0.00 67 1014.2
20260902235513 86 225 0.0 0.0 0.00 0.00 0.00 67 1011.1
20260902235058 86 219 2.6 9.6 0.00 0.00 0.00 66 1014.1
20260902235016 86 225 0.0 0.0 0.00 0.00 0.00 66 1011.1
20260902234617 86 235 2.6 13.9 0.00 0.00 0.00 65 1014.1
20260902234516 86 225 0.0 0.0 0.00 0.00 0.00 66 1011.0
20260902234058 87 223 3.5 13.9 0.00 0.00 0.00 65 1014.0
20260902234015 87 230 0.0 0.0 0.00 0.00 0.00 65 1011.0
20260902233601 87 212 3.5 8.7 0.00 0.00 0.00 65 1014.0
20260902233513 87 226 0.0 0.0 0.00 0.00 0.00 65 1010.9
20260902233105 87 238 3.5 8.7 0.00 0.00 0.00 65 1014.0
20260902233013 87 226 0.0 0.0 0.00 0.00 0.00 65 1011.0
20260902232559 87 192 2.6 7.8 0.00 0.00 0.00 65 1014.0
20260902232513 87 227 0.0 0.0 0.00 0.00 0.00 65 1011.0
20260902232058 87 244 3.5 9.6 0.00 0.00 0.00 64 1014.1
20260902232012 87 227 0.0 0.0 0.00 0.00 0.00 65 1011.0
20260902231617 88 209 3.5 9.6 0.00 0.00 0.00 64 1014.1
20260902231529 87 225 0.0 0.0 0.00 0.00 0.00 65 1010.9
20260902231100 88 210 3.5 7.8 0.00 0.00 0.00 65 1014.1
20260902231013 88 225 0.0 0.0 0.00 0.00 0.00 65 1011.0
20260902230603 88 225 3.5 10.4 0.00 0.00 0.00 64 1014.1
20260902230511 88 213 0.0 0.0 0.00 0.00 0.00 64 1011.0
20260902230108 88 246 3.5 11.3 0.00 0.00 0.00 63 1014.1
20260902230012 88 213 0.0 0.0 0.00 0.00 0.00 63 1011.0
20260902225600 89 189 3.5 11.3 0.00 0.00 0.00 62 1014.1
20260902225512 89 205 0.0 0.0 0.00 0.00 0.00 62 1010.9
20260902225058 89 216 4.3 12.2 0.00 0.00 0.00 62 1014.0
20260902225014 89 236 0.0 0.0 0.00 0.00 0.00 62 1010.9
20260902224612 89 220 5.2 12.2 0.00 0.00 0.00 60 1014.0
20260902224512 89 210 0.0 0.0 0.00 0.00 0.00 61 1010.8
20260902224101 89 244 3.5 11.3 0.00 0.00 0.00 61 1013.9
20260902224013 89 205 0.0 0.0 0.00 0.00 0.00 62 1010.8
20260902223558 89 220 4.3 11.3 0.00 0.00 0.00 61 1013.9
20260902223511 89 211 0.0 0.0 0.00 0.00 0.00 61 1010.7
20260902223113 90 202 0.0 0.0 0.00 0.00 0.00 61 1010.7
20260902223104 90 209 4.3 11.3 0.00 0.00 0.00 60 1013.9
20260902222600 90 205 3.5 13.0 0.00 0.00 0.00 61 1014.0
20260902222509 90 202 0.0 0.0 0.00 0.00 0.00 61 1010.8
20260902222100 90 203 3.5 13.0 0.00 0.00 0.00 61 1014.0
20260902222012 90 213 0.0 0.0 0.00 0.00 0.00 61 1010.8
20260902221608 90 227 4.3 13.0 0.00 0.00 0.00 59 1014.1
20260902221509 90 204 0.0 0.0 0.00 0.00 0.00 60 1010.9
20260902221100 90 216 4.3 11.3 0.00 0.00 0.00 60 1014.1
20260902221012 90 209 0.0 0.0 0.00 0.00 0.00 61 1010.8
20260902220600 90 234 3.5 11.3 0.00 0.00 0.00 59 1014.1
20260902220510 90 209 0.0 0.0 0.00 0.00 0.00 60 1010.8
20260902220105 90 243 3.5 11.3 0.00 0.00 0.00 60 1014.1
20260902220020 90 205 0.0 0.0 0.00 0.00 0.00 61 1010.9
20260902215609 90 206 0.0 0.0 0.00 0.00 0.00 60 1010.8
20260902215558 90 239 4.3 13.0 0.00 0.00 0.00 59 1014.0
20260902215059 91 227 0.0 0.0 0.00 0.00 0.00 59 1010.9
20260902214608 91 270 0.0 0.0 0.00 0.00 0.00 58 1011.0
20260902214603 91 237 5.2 13.9 0.00 0.00 0.00 58 1014.1
20260902214101 91 210 5.2 14.8 0.00 0.00 0.00 57 1014.2
20260902214058 91 214 0.0 0.0 0.00 0.00 0.00 58 1011.0
20260902213600 91 184 7.0 14.8 0.00 0.00 0.00 56 1014.2
20260902213557 91 213 0.0 0.0 0.00 0.00 0.00 57 1011.0
20260902213127 91 211 5.2 11.3 0.00 0.00 0.00 56 1014.3
20260902213057 91 228 0.0 0.0 0.00 0.00 0.00 57 1011.1
20260902212656 91 231 0.0 0.0 0.00 0.00 0.00 57 1011.2
20260902212601 91 202 4.3 11.3 0.00 0.00 0.00 57 1014.2
20260902212101 91 207 6.1 13.9 0.00 0.00 0.00 57 1014.3
20260902212035 91 210 0.0 0.0 0.00 0.00 0.00 57 1011.2
20260902211629 91 232 4.3 13.9 0.00 0.00 0.00 57 1014.4
20260902211538 91 228 0.0 0.0 0.00 0.00 0.00 58 1011.2
20260902211100 92 227 5.2 13.0 0.00 0.00 0.00 58 1014.5
20260902211038 92 277 0.0 0.0 0.00 0.00 0.00 58 1011.3
20260902210559 92 242 6.1 13.0 0.00 0.00 0.00 57 1014.4
20260902210534 92 211 0.0 0.0 0.00 0.00 0.00 58 1011.3
20260902210106 92 224 5.2 13.9 0.00 0.00 0.00 58 1014.4
20260902210034 92 220 0.0 0.0 0.00 0.00 0.00 59 1011.3
20260902205557 92 227 6.1 13.9 0.00 0.00 0.00 59 1014.4
20260902205533 92 240 0.0 0.0 0.00 0.00 0.00 59 1011.3
20260902205101 92 192 5.2 13.9 0.00 0.00 0.00 59 1014.5
20260902205033 92 213 0.0 0.0 0.00 0.00 0.00 59 1011.4
20260902204606 92 207 5.2 13.9 0.00 0.00 0.00 58 1014.5
20260902204531 92 172 0.0 0.0 0.00 0.00 0.00 59 1011.4
20260902204101 92 240 5.2 16.5 0.00 0.00 0.00 58 1014.5
20260902204031 92 227 0.0 0.0 0.00 0.00 0.00 59 1011.4
20260902203603 91 212 6.1 16.5 0.00 0.00 0.00 57 1014.6
20260902203535 92 214 0.0 0.0 0.00 0.00 0.00 59 1011.5
20260902203109 92 229 4.3 10.4 0.00 0.00 0.00 59 1014.7
20260902203031 92 213 0.0 0.0 0.00 0.00 0.00 59 1011.5
20260902202600 92 243 4.3 10.4 0.00 0.00 0.00 59 1014.8
20260902202531 92 199 0.0 0.0 0.00 0.00 0.00 59 1011.6
20260902202130 92 217 0.0 0.0 0.00 0.00 0.00 60 1011.7
20260902202057 92 228 4.3 10.4 0.00 0.00 0.00 59 1014.8
20260902201610 92 223 4.3 13.0 0.00 0.00 0.00 59 1014.9
20260902201536 92 191 0.0 0.0 0.00 0.00 0.00 60 1011.8
20260902201058 92 203 3.5 13.0 0.00 0.00 0.00 60 1014.9
20260902201028 92 202 0.0 0.0 0.00 0.00 0.00 61 1011.8
20260902200559 92 230 5.2 13.0 0.00 0.00 0.00 59 1014.9
20260902200528 92 181 0.0 0.0 0.00 0.00 0.00 60 1011.9
20260902200137 92 196 5.2 13.0 0.00 0.00 0.00 59 1015.0
20260902200027 92 205 0.0 0.0 0.00 0.00 0.00 60 1012.0
20260902195601 92 199 3.5 12.2 0.00 0.00 0.00 59 1014.9
20260902195526 92 225 0.0 0.0 0.00 0.00 0.00 60 1012.1
20260902195100 92 206 3.5 12.2 0.00 0.00 0.00 60 1014.9
20260902195025 92 242 0.0 0.0 0.00 0.00 0.00 61 1012.1
20260902194603 92 215 4.3 12.2 0.00 0.00 0.00 60 1014.9
20260902194525 92 205 0.0 0.0 0.00 0.00 0.00 61 1012.0
20260902194104 91 243 4.3 12.2 0.00 0.00 0.00 61 1015.0
20260902194025 91 225 0.0 0.0 0.00 0.00 0.00 61 1012.1
20260902193559 91 198 5.2 12.2 0.00 0.00 0.00 60 1015.1
20260902193525 91 221 0.0 0.0 0.00 0.00 0.00 61 1012.2
20260902193107 90 186 3.5 9.6 0.00 0.00 0.00 62 1015.3
20260902193024 90 248 0.0 0.0 0.00 0.00 0.00 61 1012.3
20260902192600 91 242 4.3 11.3 0.00 0.00 0.00 59 1015.3
20260902192524 91 242 0.0 0.0 0.00 0.00 0.00 61 1012.3
20260902192100 91 226 3.5 12.2 0.00 0.00 0.00 58 1015.3
20260902192023 91 241 0.0 0.0 0.00 0.00 0.00 59 1012.4
20260902191609 92 240 4.3 12.2 0.00 0.00 0.00 57 1015.4
20260902191522 93 232 0.0 0.0 0.00 0.00 0.00 57 1012.4
20260902191058 93 252 4.3 12.2 0.00 0.00 0.00 56 1015.4
20260902191022 93 234 0.0 0.0 0.00 0.00 0.00 59 1012.5
20260902190558 93 229 3.5 9.6 0.00 0.00 0.00 59 1015.5
20260902190522 93 197 0.0 0.0 0.00 0.00 0.00 59 1012.5
20260902190115 92 217 4.3 13.0 0.00 0.00 0.00 60 1015.5
20260902190020 92 232 0.0 0.0 0.00 0.00 0.00 61 1012.6
20260902185602 93 247 6.1 13.0 0.00 0.00 0.00 60 1015.6
20260902185520 93 223 0.0 0.0 0.00 0.00 0.00 59 1012.6
20260902185102 93 205 4.3 10.4 0.00 0.00 0.00 59 1015.5
20260902185020 93 219 0.0 0.0 0.00 0.00 0.00 59 1012.6
20260902184605 92 207 5.2 10.4 0.00 0.00 0.00 59 1015.5
20260902184517 93 218 0.0 0.0 0.00 0.00 0.00 59 1012.6
20260902184101 92 232 3.5 10.4 0.00 0.00 0.00 62 1015.4
20260902184017 92 221 0.0 0.0 0.00 0.00 0.00 62 1012.7
20260902183605 92 202 5.2 9.6 0.00 0.00 0.00 59 1015.5
20260902183516 92 224 0.0 0.0 0.00 0.00 0.00 60 1012.7
20260902183119 92 218 3.5 9.6 0.00 0.00 0.00 59 1015.5
20260902183016 92 218 0.0 0.0 0.00 0.00 0.00 59 1012.8
20260902182559 92 252 4.3 10.4 0.00 0.00 0.00 61 1015.5
20260902182515 91 246 0.0 0.0 0.00 0.00 0.00 60 1012.9
20260902182058 92 232 3.5 10.4 0.00 0.00 0.00 60 1015.6
20260902182014 92 213 0.0 0.0 0.00 0.00 0.00 62 1012.8
20260902181605 91 179 3.5 8.7 0.00 0.00 0.00 63 1015.5
20260902181513 91 246 0.0 0.0 0.00 0.00 0.00 63 1012.9
20260902181059 91 261 3.5 9.6 0.00 0.00 0.00 63 1015.5
20260902181013 91 254 0.0 0.0 0.00 0.00 0.00 61 1013.0
20260902180607 91 226 3.5 9.6 0.00 0.00 0.00 63 1015.7
20260902180512 90 239 0.0 0.0 0.00 0.00 0.00 64 1013.1
20260902180131 90 274 4.3 9.6 0.00 0.00 0.00 61 1015.6
20260902180013 90 236 0.0 0.0 0.00 0.00 0.00 62 1013.1
20260902175601 91 240 4.3 8.7 0.00 0.00 0.00 61 1015.7
20260902175513 91 214 0.0 0.0 0.00 0.00 0.00 62 1013.2
20260902175101 92 252 3.5 7.0 0.00 0.00 0.00 63 1015.8
20260902175012 92 180 0.0 0.0 0.00 0.00 0.00 63 1013.2
20260902174611 91 190 1.7 13.0 0.00 0.00 0.00 61 1015.8
20260902174513 91 289 0.0 0.0 0.00 0.00 0.00 61 1013.2
20260902174100 91 261 2.6 13.0 0.00 0.00 0.00 62 1015.9
20260902174014 91 221 0.0 0.0 0.00 0.00 0.00 62 1013.3
20260902173558 91 209 6.1 13.0 0.00 0.00 0.00 62 1015.9
20260902173510 91 207 0.0 0.0 0.00 0.00 0.00 62 1013.3
20260902173105 90 240 2.6 8.7 0.00 0.00 0.00 64 1016.0
20260902173021 90 237 0.0 0.0 0.00 0.00 0.00 65 1013.3
20260902172600 90 209 2.6 7.8 0.00 0.00 0.00 64 1016.1
20260902172510 90 237 0.0 0.0 0.00 0.00 0.00 64 1013.3
20260902172101 90 238 3.5 7.8 0.00 0.00 0.00 64 1016.1
20260902172007 90 232 0.0 0.0 0.00 0.00 0.00 66 1013.4
20260902171607 90 231 3.5 8.7 0.00 0.00 0.00 64 1016.1
20260902171507 90 161 0.0 0.0 0.00 0.00 0.00 64 1013.7
20260902171100 89 226 3.5 8.7 0.00 0.00 0.00 66 1016.1
20260902171005 89 256 0.0 0.0 0.00 0.00 0.00 67 1013.7
20260902170600 89 263 4.3 10.4 0.00 0.00 0.00 65 1016.1
20260902170505 89 259 0.0 0.0 0.00 0.00 0.00 67 1013.7
20260902170107 89 233 3.5 10.4 0.00 0.00 0.00 66 1016.1
20260902170008 89 202 0.0 0.0 0.00 0.00 0.00 67 1013.6
20260902165601 88 218 4.3 12.2 0.00 0.00 0.00 68 1016.1
20260902165505 88 217 0.0 0.0 0.00 0.00 0.00 69 1013.6
20260902165059 87 219 3.5 12.2 0.00 0.00 0.00 68 1016.3
20260902165005 87 200 0.0 0.0 0.00 0.00 0.00 68 1013.7
20260902164606 88 222 4.3 11.3 0.00 0.00 0.00 66 1016.4
20260902164505 89 209 0.0 0.0 0.00 0.00 0.00 66 1014.0
20260902164058 89 238 3.5 9.6 0.00 0.00 0.00 66 1016.5
20260902164004 89 180 0.0 0.0 0.00 0.00 0.00 66 1014.3
20260902163558 89 257 4.3 9.6 0.00 0.00 0.00 66 1016.6
20260902163504 89 161 0.0 0.0 0.00 0.00 0.00 67 1014.2
20260902163105 90 223 3.5 7.8 0.00 0.00 0.00 66 1016.5
20260902163003 89 236 0.0 0.0 0.00 0.00 0.00 70 1014.2
20260902162600 88 217 3.5 7.8 0.00 0.00 0.00 67 1016.5
20260902162502 88 263 0.0 0.0 0.00 0.00 0.00 68 1014.2
20260902162058 88 257 2.6 8.7 0.00 0.00 0.00 66 1016.5
20260902161611 89 238 0.0 0.0 0.00 0.00 0.00 67 1014.2
20260902161609 89 192 3.5 8.7 0.00 0.00 0.00 66 1016.6
20260902161058 88 264 2.6 7.8 0.00 0.00 0.00 67 1016.5
20260902160600 88 222 3.5 7.8 0.00 0.00 0.00 68 1016.6
20260902160557 88 183 0.0 0.0 0.00 0.00 0.00 69 1014.2
20260902160108 88 197 3.5 6.1 0.00 0.00 0.00 68 1016.5
20260902160056 88 176 0.0 0.0 0.00 0.00 0.00 69 1014.2
20260902155558 88 240 1.7 6.1 0.00 0.00 0.00 69 1016.5
20260902155554 88 320 0.0 0.0 0.00 0.00 0.00 69 1014.2
20260902155103 87 326 0.0 0.0 0.00 0.00 0.00 71 1014.3
20260902155101 87 277 1.7 8.7 0.00 0.00 0.00 71 1016.5
20260902154619 86 247 1.7 9.6 0.00 0.00 0.00 69 1016.6
20260902154551 86 342 0.0 0.0 0.00 0.00 0.00 70 1014.3
20260902154057 87 221 1.7 9.6 0.00 0.00 0.00 68 1016.6
20260902154052 87 241 0.0 0.0 0.00 0.00 0.00 69 1014.3
20260902153600 87 229 4.3 9.6 0.00 0.00 0.00 69 1016.5
20260902153552 87 270 0.0 0.0 0.00 0.00 0.00 70 1014.2
20260902153106 87 212 3.5 8.7 0.00 0.00 0.00 69 1016.5
20260902153049 87 270 0.0 0.0 0.00 0.00 0.00 70 1014.1
20260902152600 87 250 3.5 6.1 0.00 0.00 0.00 72 1016.4
20260902152548 86 265 0.0 0.0 0.00 0.00 0.00 73 1014.1
20260902152100 86 267 1.7 7.8 0.00 0.00 0.00 70 1016.5
20260902152057 86 260 0.0 0.0 0.00 0.00 0.00 70 1014.1
20260902151601 86 228 1.7 7.8 0.00 0.00 0.00 70 1016.5
20260902151545 86 225 0.0 0.0 0.00 0.00 0.00 71 1014.1
20260902151059 86 219 3.5 9.6 0.00 0.00 0.00 70 1016.5
20260902151044 86 179 0.0 0.0 0.00 0.00 0.00 70 1014.0
20260902150557 85 188 3.5 9.6 0.00 0.00 0.00 75 1016.4
20260902150542 85 215 0.0 0.0 0.00 0.00 0.00 75 1014.0
20260902150104 85 241 1.7 9.6 0.00 0.00 0.00 74 1016.4
20260902150042 85 215 0.0 0.0 0.00 0.00 0.00 74 1013.9
20260902145559 85 217 3.5 9.6 0.00 0.00 0.00 75 1016.3
20260902145541 85 215 0.0 0.0 0.00 0.00 0.00 75 1013.8
20260902145100 85 234 3.5 9.6 0.00 0.00 0.00 74 1016.3
20260902145040 85 194 0.0 0.0 0.00 0.00 0.00 75 1013.8
20260902144721 85 229 2.6 8.7 0.00 0.00 0.00 74 1016.2
20260902144539 85 182 0.0 0.0 0.00 0.00 0.00 75 1013.8
20260902144058 84 199 2.6 8.7 0.00 0.00 0.00 74 1016.0
20260902144038 84 239 0.0 0.0 0.00 0.00 0.00 74 1013.7
20260902143600 84 221 3.5 8.7 0.00 0.00 0.00 76 1016.1
20260902143537 84 240 0.0 0.0 0.00 0.00 0.00 77 1013.7
20260902143103 84 211 2.6 8.7 0.00 0.00 0.00 77 1016.1
20260902143036 84 240 0.0 0.0 0.00 0.00 0.00 77 1013.8
20260902142601 84 238 2.6 7.8 0.00 0.00 0.00 77 1016.1
20260902142534 84 250 0.0 0.0 0.00 0.00 0.00 77 1013.8
20260902142102 83 225 3.5 7.8 0.00 0.00 0.00 78 1016.0
20260902142032 83 265 0.0 0.0 0.00 0.00 0.00 80 1013.7
20260902141612 82 255 3.5 9.6 0.00 0.00 0.00 77 1016.0
20260902141530 82 200 0.0 0.0 0.00 0.00 0.00 78 1013.6
20260902141057 82 240 2.6 9.6 0.00 0.00 0.00 78 1016.0
20260902141030 82 200 0.0 0.0 0.00 0.00 0.00 78 1013.7
20260902140600 82 232 3.5 7.8 0.00 0.00 0.00 78 1016.0
20260902140530 82 200 0.0 0.0 0.00 0.00 0.00 79 1013.9
20260902140105 82 227 3.5 8.7 0.00 0.00 0.00 80 1016.0
20260902140033 82 222 0.0 0.0 0.00 0.00 0.00 80 1013.9
20260902135558 81 207 2.6 8.7 0.00 0.00 0.00 80 1016.0
20260902135528 81 215 0.0 0.0 0.00 0.00 0.00 81 1013.9
20260902135100 81 216 3.5 7.0 0.00 0.00 0.00 79 1016.0
20260902135025 81 215 0.0 0.0 0.00 0.00 0.00 80 1013.9
20260902134604 81 223 3.5 8.7 0.00 0.00 0.00 80 1015.9
20260902134524 81 215 0.0 0.0 0.00 0.00 0.00 81 1013.8
20260902134057 81 224 2.6 8.7 0.00 0.00 0.00 81 1015.9
20260902134023 81 215 0.0 0.0 0.00 0.00 0.00 81 1013.7
20260902133600 80 195 4.3 8.7 0.00 0.00 0.00 81 1015.9
20260902133522 80 214 0.0 0.0 0.00 0.00 0.00 81 1013.6
20260902133104 80 223 2.6 7.0 0.00 0.00 0.00 81 1015.8
20260902133021 80 212 0.0 0.0 0.00 0.00 0.00 83 1013.6
20260902132603 80 220 3.5 9.6 0.00 0.00 0.00 82 1015.8
20260902132526 80 214 0.0 0.0 0.00 0.00 0.00 83 1013.8
20260902132100 79 220 3.5 9.6 0.00 0.00 0.00 82 1015.8
20260902132017 80 213 0.0 0.0 0.00 0.00 0.00 83 1013.9
20260902131608 79 235 2.6 9.6 0.00 0.00 0.00 83 1015.9
20260902131527 79 212 0.0 0.0 0.00 0.00 0.00 84 1014.0
20260902131100 79 257 3.5 9.6 0.00 0.00 0.00 84 1015.9
20260902131015 79 213 0.0 0.0 0.00 0.00 0.00 85 1013.9
20260902130600 79 192 3.5 9.6 0.00 0.00 0.00 84 1015.8
20260902130513 78 211 0.0 0.0 0.00 0.00 0.00 84 1013.8
20260902130119 78 211 0.0 0.0 0.00 0.00 0.00 85 1013.7
20260902130105 78 225 3.5 7.0 0.00 0.00 0.00 84 1015.9
20260902125602 78 213 3.5 7.0 0.00 0.00 0.00 85 1015.9
20260902125512 78 203 0.0 0.0 0.00 0.00 0.00 86 1014.0
20260902125103 78 232 3.5 8.7 0.00 0.00 0.00 86 1016.0
20260902125011 77 202 0.0 0.0 0.00 0.00 0.00 86 1013.9
20260902124603 77 212 3.5 8.7 0.00 0.00 0.00 86 1015.9
20260902124515 77 192 0.0 0.0 0.00 0.00 0.00 87 1013.9
20260902124115 77 203 0.0 0.0 0.00 0.00 0.00 87 1013.9
20260902124100 77 208 3.5 7.8 0.00 0.00 0.00 87 1015.9
20260902123600 77 191 2.6 6.1 0.00 0.00 0.00 87 1015.9
20260902123503 77 207 0.0 0.0 0.00 0.00 0.00 87 1013.8
20260902123105 76 202 3.5 6.1 0.00 0.00 0.00 87 1015.9
20260902123004 76 206 0.0 0.0 0.00 0.00 0.00 87 1013.8
20260902122558 76 225 2.6 7.8 0.00 0.00 0.00 87 1015.9
20260902122502 76 207 0.0 0.0 0.00 0.00 0.00 88 1013.8
20260902122100 76 209 2.6 7.8 0.00 0.00 0.00 88 1015.8
20260902122059 76 207 0.0 0.0 0.00 0.00 0.00 88 1013.8
20260902121611 76 207 0.0 0.0 0.00 0.00 0.00 89 1013.7
20260902121606 76 177 1.7 8.7 0.00 0.00 0.00 88 1015.9
20260902121100 76 210 1.7 8.7 0.00 0.00 0.00 89 1015.8
20260902121057 76 207 0.0 0.0 0.00 0.00 0.00 89 1013.8
20260902120600 75 219 1.7 6.1 0.00 0.00 0.00 89 1015.8
20260902120556 75 207 0.0 0.0 0.00 0.00 0.00 89 1013.7
20260902120106 75 207 0.0 0.0 0.00 0.00 0.00 89 1013.8
20260902115600 75 208 1.7 5.2 0.00 0.00 0.00 88 1015.8
20260902115555 75 207 0.0 0.0 0.00 0.00 0.00 89 1013.7
20260902115104 75 212 2.6 5.2 0.00 0.00 0.00 89 1015.8
20260902115054 75 207 0.0 0.0 0.00 0.00 0.00 89 1013.7
20260902114612 75 207 0.0 0.0 0.00 0.00 0.00 89 1013.6
20260902114603 75 203 1.7 7.0 0.00 0.00 0.00 89 1015.7
20260902114059 75 240 1.7 7.0 0.00 0.00 0.00 89 1015.6
20260902114053 75 207 0.0 0.0 0.00 0.00 0.00 89 1013.5
20260902113559 75 243 1.7 7.0 0.00 0.00 0.00 89 1015.6
20260902113553 75 207 0.0 0.0 0.00 0.00 0.00 90 1013.4
20260902113151 75 207 0.0 0.0 0.00 0.00 0.00 90 1013.3
20260902113115 75 234 2.6 7.0 0.00 0.00 0.00 89 1015.4
20260902112600 75 232 2.6 7.0 0.00 0.00 0.00 89 1015.4
20260902112551 75 207 0.0 0.0 0.00 0.00 0.00 90 1013.2
20260902112100 75 219 2.6 7.0 0.00 0.00 0.00 89 1015.4
20260902112049 75 207 0.0 0.0 0.00 0.00 0.00 90 1013.2
20260902111605 75 239 3.5 7.0 0.00 0.00 0.00 89 1015.3
20260902111558 75 207 0.0 0.0 0.00 0.00 0.00 90 1013.2
20260902111100 75 252 2.6 7.8 0.00 0.00 0.00 89 1015.3
20260902111048 75 207 0.0 0.0 0.00 0.00 0.00 90 1013.2
20260902110601 75 227 2.6 7.8 0.00 0.00 0.00 89 1015.4
20260902110548 75 207 0.0 0.0 0.00 0.00 0.00 90 1013.2
20260902110104 75 243 1.7 7.8 0.00 0.00 0.00 89 1015.4
20260902110052 75 207 0.0 0.0 0.00 0.00 0.00 90 1013.3
20260902105600 75 252 3.5 7.8 0.00 0.00 0.00 89 1015.4
20260902105547 75 207 0.0 0.0 0.00 0.00 0.00 90 1013.2
20260902105102 75 223 1.7 7.8 0.00 0.00 0.00 89 1015.4
20260902105047 75 207 0.0 0.0 0.00 0.00 0.00 90 1013.2
20260902104605 75 236 2.6 7.8 0.00 0.00 0.00 89 1015.3
20260902104547 75 207 0.0 0.0 0.00 0.00 0.00 89 1013.3
20260902104059 75 202 2.6 6.1 0.00 0.00 0.00 88 1015.3
20260902104050 75 207 0.0 0.0 0.00 0.00 0.00 89 1013.2
20260902103600 76 220 2.6 10.4 0.00 0.00 0.00 88 1015.4
20260902103552 76 207 0.0 0.0 0.00 0.00 0.00 89 1013.2
20260902103104 76 225 3.5 10.4 0.00 0.00 0.00 88 1015.5
20260902103100 76 207 0.0 0.0 0.00 0.00 0.00 89 1013.3
20260902102559 75 229 3.5 6.1 0.00 0.00 0.00 89 1015.4
20260902102547 75 194 0.0 0.0 0.00 0.00 0.00 89 1013.3
20260902102100 75 234 2.6 7.0 0.00 0.00 0.00 89 1015.4
20260902102046 75 194 0.0 0.0 0.00 0.00 0.00 89 1013.3
20260902101623 75 222 2.6 7.0 0.00 0.00 0.00 89 1015.4
20260902101546 75 188 0.0 0.0 0.00 0.00 0.00 90 1013.3
20260902101100 75 215 2.6 7.0 0.00 0.00 0.00 89 1015.4
20260902101045 75 188 0.0 0.0 0.00 0.00 0.00 90 1013.3
20260902100559 75 223 1.7 6.1 0.00 0.00 0.00 89 1015.5
20260902100550 75 185 0.0 0.0 0.00 0.00 0.00 90 1013.3
20260902100105 75 228 3.5 6.1 0.00 0.00 0.00 89 1015.5
20260902100046 75 179 0.0 0.0 0.00 0.00 0.00 90 1013.4
20260902095600 75 198 2.6 5.2 0.00 0.00 0.00 90 1015.5
20260902095546 75 179 0.0 0.0 0.00 0.00 0.00 90 1013.4
20260902095058 75 198 1.7 5.2 0.00 0.00 0.00 90 1015.5
20260902095048 75 179 0.0 0.0 0.00 0.00 0.00 90 1013.4
20260902094602 75 209 1.7 6.1 0.00 0.00 0.00 89 1015.5
20260902094549 75 179 0.0 0.0 0.00 0.00 0.00 90 1013.4
20260902094100 75 223 0.9 6.1 0.00 0.00 0.00 89 1015.5
20260902094046 75 179 0.0 0.0 0.00 0.00 0.00 90 1013.3
20260902093558 75 212 2.6 6.1 0.00 0.00 0.00 89 1015.4
20260902093544 75 179 0.0 0.0 0.00 0.00 0.00 90 1013.4
20260902093102 75 222 3.5 6.1 0.00 0.00 0.00 90 1015.4
20260902093044 75 179 0.0 0.0 0.00 0.00 0.00 90 1013.1
20260902092559 75 200 2.6 5.2 0.00 0.00 0.00 90 1015.4
20260902092544 75 179 0.0 0.0 0.00 0.00 0.00 90 1013.1
20260902092104 75 209 2.6 7.0 0.00 0.00 0.00 89 1015.5
20260902092044 75 179 0.0 0.0 0.00 0.00 0.00 90 1013.3
20260902091606 75 194 2.6 7.0 0.00 0.00 0.00 89 1015.5
20260902091552 75 179 0.0 0.0 0.00 0.00 0.00 90 1013.3
20260902091059 75 194 2.6 7.0 0.00 0.00 0.00 89 1015.5
20260902091043 75 179 0.0 0.0 0.00 0.00 0.00 90 1013.3
20260902090603 75 207 3.5 7.0 0.00 0.00 0.00 90 1015.6
20260902090543 75 179 0.0 0.0 0.00 0.00 0.00 90 1013.3
20260902090127 75 205 3.5 6.1 0.00 0.00 0.00 90 1015.5
20260902090053 75 179 0.0 0.0 0.00 0.00 0.00 90 1013.1
20260902085603 75 199 2.6 7.0 0.00 0.00 0.00 90 1015.5
20260902085542 75 179 0.0 0.0 0.00 0.00 0.00 90 1013.1
20260902085100 75 207 3.5 7.0 0.00 0.00 0.00 90 1015.4
20260902085042 75 179 0.0 0.0 0.00 0.00 0.00 90 1013.2
20260902084604 75 194 4.3 6.1 0.00 0.00 0.00 90 1015.4
20260902084541 75 179 0.0 0.0 0.00 0.00 0.00 90 1013.2
20260902084101 75 194 3.5 6.1 0.00 0.00 0.00 90 1015.3
20260902084043 75 179 0.0 0.0 0.00 0.00 0.00 90 1013.2
20260902083600 75 192 2.6 5.2 0.00 0.00 0.00 90 1015.4
20260902083542 75 179 0.0 0.0 0.00 0.00 0.00 90 1013.2
20260902083110 75 198 1.7 4.3 0.00 0.00 0.00 90 1015.4
20260902083045 75 179 0.0 0.0 0.00 0.00 0.00 90 1013.3
20260902082636 76 194 1.7 4.3 0.00 0.00 0.00 90 1015.4
20260902082540 75 179 0.0 0.0 0.00 0.00 0.00 90 1013.3
20260902082059 76 200 2.6 4.3 0.00 0.00 0.00 90 1015.5
20260902082039 76 179 0.0 0.0 0.00 0.00 0.00 90 1013.3
20260902081605 75 192 1.7 4.3 0.00 0.00 0.00 90 1015.4
20260902081541 75 178 0.0 0.0 0.00 0.00 0.00 91 1013.2
20260902081059 75 195 2.6 4.3 0.00 0.00 0.00 90 1015.4
20260902081037 75 178 0.0 0.0 0.00 0.00 0.00 91 1013.2
20260902080558 75 186 1.7 3.5 0.00 0.00 0.00 90 1015.5
20260902080537 75 178 0.0 0.0 0.00 0.00 0.00 91 1013.2
20260902080116 75 186 0.9 3.5 0.00 0.00 0.00 90 1015.5
20260902080037 75 178 0.0 0.0 0.00 0.00 0.00 91 1013.2
20260902075602 75 201 1.7 3.5 0.00 0.00 0.00 91 1015.5
20260902075536 75 178 0.0 0.0 0.00 0.00 0.00 91 1013.2
20260902075058 75 186 0.9 3.5 0.00 0.00 0.00 90 1015.5
20260902075036 75 178 0.0 0.0 0.00 0.00 0.00 91 1013.2
20260902074611 75 190 1.7 3.5 0.00 0.00 0.00 89 1015.5
20260902074548 75 178 0.0 0.0 0.00 0.00 0.00 90 1013.2
20260902074100 76 175 0.9 4.3 0.00 0.00 0.00 90 1015.3
20260902074035 76 178 0.0 0.0 0.00 0.00 0.00 90 1012.9
20260902073559 76 188 1.7 4.3 0.00 0.00 0.00 90 1015.3
20260902073533 76 178 0.0 0.0 0.00 0.00 0.00 90 1012.9
20260902073103 76 174 1.7 4.3 0.00 0.00 0.00 90 1015.2
20260902073034 76 178 0.0 0.0 0.00 0.00 0.00 90 1012.8
20260902072600 76 179 0.9 4.3 0.00 0.00 0.00 90 1015.2
20260902072532 76 178 0.0 0.0 0.00 0.00 0.00 90 1012.8
20260902072101 76 155 1.7 5.2 0.00 0.00 0.00 90 1015.1
20260902072029 76 179 0.0 0.0 0.00 0.00 0.00 90 1012.8
20260902071605 76 169 0.9 5.2 0.00 0.00 0.00 90 1015.1
20260902071528 76 179 0.0 0.0 0.00 0.00 0.00 90 1012.8
20260902071058 75 189 1.7 4.3 0.00 0.00 0.00 90 1015.3
20260902071027 75 179 0.0 0.0 0.00 0.00 0.00 90 1012.8
20260902070557 75 151 1.7 4.3 0.00 0.00 0.00 90 1015.1
20260902070527 75 178 0.0 0.0 0.00 0.00 0.00 90 1012.7
20260902070106 75 171 1.7 4.3 0.00 0.00 0.00 90 1015.3
20260902070026 75 178 0.0 0.0 0.00 0.00 0.00 90 1012.9
20260902065558 75 152 0.0 4.3 0.00 0.00 0.00 90 1015.4
20260902065526 75 178 0.0 0.0 0.00 0.00 0.00 90 1012.9
20260902065102 75 159 1.7 4.3 0.00 0.00 0.00 89 1015.4
20260902065026 75 178 0.0 0.0 0.00 0.00 0.00 90 1012.9
20260902064608 75 148 1.7 4.3 0.00 0.00 0.00 89 1015.3
20260902064532 75 178 0.0 0.0 0.00 0.00 0.00 90 1012.8
20260902064100 75 169 1.7 4.3 0.00 0.00 0.00 89 1015.1
20260902064026 75 178 0.0 0.0 0.00 0.00 0.00 89 1012.8
20260902063600 75 169 0.0 1.7 0.00 0.00 0.00 89 1015.3
20260902063524 75 217 0.0 0.0 0.00 0.00 0.00 89 1012.8
20260902063102 75 168 0.0 2.6 0.00 0.00 0.00 89 1015.3
20260902063025 75 217 0.0 0.0 0.00 0.00 0.00 89 1012.9
20260902062600 75 0 0.9 2.6 0.00 0.00 0.00 89 1015.4
20260902062525 75 217 0.0 0.0 0.00 0.00 0.00 89 1012.9
20260902062058 75 0 0.0 3.5 0.00 0.00 0.00 88 1015.4
20260902062023 75 217 0.0 0.0 0.00 0.00 0.00 89 1013.0
20260902061625 75 163 0.9 3.5 0.00 0.00 0.00 88 1015.4
20260902061537 75 217 0.0 0.0 0.00 0.00 0.00 89 1013.0
20260902061104 75 0 0.0 1.7 0.00 0.00 0.00 88 1015.5
20260902061024 75 217 0.0 0.0 0.00 0.00 0.00 89 1013.1
20260902060558 75 165 0.0 1.7 0.00 0.00 0.00 88 1015.5
20260902060523 75 217 0.0 0.0 0.00 0.00 0.00 89 1013.2
20260902060106 74 165 0.0 1.7 0.00 0.00 0.00 89 1015.5
20260902060027 74 217 0.0 0.0 0.00 0.00 0.00 89 1013.2
20260902055600 74 165 0.0 1.7 0.00 0.00 0.00 88 1015.5
20260902055526 74 217 0.0 0.0 0.00 0.00 0.00 89 1013.2
20260902055100 74 0 0.0 1.7 0.00 0.00 0.00 89 1015.6
20260902055022 74 217 0.0 0.0 0.00 0.00 0.00 90 1013.3
20260902054606 74 165 0.0 1.7 0.00 0.00 0.00 88 1015.6
20260902054535 74 217 0.0 0.0 0.00 0.00 0.00 89 1013.3
20260902054058 74 0 0.0 3.5 0.00 0.00 0.00 88 1015.8
20260902054026 74 217 0.0 0.0 0.00 0.00 0.00 88 1013.4
20260902053600 74 0 0.0 3.5 0.00 0.00 0.00 88 1015.7
20260902053521 74 217 0.0 0.0 0.00 0.00 0.00 89 1013.4
20260902053105 73 156 0.0 1.7 0.00 0.00 0.00 90 1015.7
20260902053023 73 217 0.0 0.0 0.00 0.00 0.00 90 1013.4
20260902052559 73 181 0.0 0.9 0.00 0.00 0.00 90 1015.7
20260902052520 73 217 0.0 0.0 0.00 0.00 0.00 90 1013.4
20260902052103 72 0 0.0 0.0 0.00 0.00 0.00 90 1015.7
20260902052021 72 217 0.0 0.0 0.00 0.00 0.00 90 1013.3
20260902051604 72 0 0.0 0.9 0.00 0.00 0.00 88 1015.7
20260902051519 72 217 0.0 0.0 0.00 0.00 0.00 89 1013.4
20260902051057 73 0 0.0 0.9 0.00 0.00 0.00 88 1015.6
20260902051017 73 217 0.0 0.0 0.00 0.00 0.00 88 1013.3
20260902050559 73 0 0.0 0.9 0.00 0.00 0.00 88 1015.7
20260902050517 73 217 0.0 0.0 0.00 0.00 0.00 89 1013.3
20260902050107 73 0 0.0 0.9 0.00 0.00 0.00 88 1015.6
20260902050017 73 217 0.0 0.0 0.00 0.00 0.00 89 1013.3
20260902045601 73 0 0.0 0.9 0.00 0.00 0.00 87 1015.6
20260902045516 73 218 0.0 0.0 0.00 0.00 0.00 88 1013.2
20260902045100 73 0 0.0 0.9 0.00 0.00 0.00 88 1015.6
20260902045015 73 218 0.0 0.0 0.00 0.00 0.00 89 1013.2
20260902044608 73 0 0.0 0.0 0.00 0.00 0.00 87 1015.7
20260902044515 73 218 0.0 0.0 0.00 0.00 0.00 88 1013.2
20260902044058 73 0 0.0 0.0 0.00 0.00 0.00 87 1015.5
20260902044014 73 218 0.0 0.0 0.00 0.00 0.00 88 1013.2